Location: Ambras
(47.2500°N, 11.4167°E)
Time: 01:35:36
(UTC+00:00)

Daily predictions for brighter satellites

Satellite Brightness Start Highest point End
(mag) Time Altitude Azimuth Time Altitude Azimuth Time Altitude Azimuth
CENTAUR R/B 4.0 02:14:21 44° E 02:14:21 44° E 02:20:23 10° ESE
Lacrosse 5 4.1 02:52:48 21° E 02:52:48 21° E 02:55:20 10° ENE
Cosmos 2263 Rocket 3.5 03:01:26 35° ENE 03:01:26 35° ENE 03:05:00 10° NE
SJ 16-02 3.8 03:08:47 20° ENE 03:08:47 20° ENE 03:10:57 10° NE
CZ-4C R/B 3.9 03:25:49 17° SSE 03:28:29 27° ESE 03:33:08 10° ENE
BREEZE-M DEB (TANK) 4.2 03:30:34 73° WNW 03:31:19 85° NNE 03:35:30 10° ESE
ATLAS 3B R/B 3.3 03:30:35 40° N 03:32:35 52° NE 03:39:32 10° ESE
Cosmos 1943 4.0 03:36:00 43° SSE 03:36:00 43° SSE 03:39:44 10° SSE
Lacrosse 4 Rocket 3.2 03:38:11 27° SE 03:38:11 27° SE 03:40:17 10° SE
EXPRESS MD2 4.5 03:53:25 40° ENE 03:53:25 40° ENE 03:57:22 10° E
ALOS 2.6 03:49:23 10° NNE 03:53:16 59° NE 03:53:16 59° NE
Cosmos 2227 Rocket 4.4 03:57:13 12° N 03:57:13 12° N 03:57:55 10° N
Cosmos 923 Rocket 4.1 03:53:37 66° N 03:54:16 77° ENE 03:59:35 10° SSE
METEOR-M 4.4 03:53:27 10° NNE 03:58:47 68° ESE 04:04:06 10° S
Cosmos 2344 4.5 03:53:01 27° NW 03:59:03 73° NE 04:11:52 10° SE
NOSS 3-2 (C) 4.2 04:00:08 47° WSW 04:00:36 48° WSW 04:08:40 10° S
Cosmos 2227 4.4 04:01:36 54° NNW 04:01:36 54° NNW 04:06:22 10° NNE
USA 305 4.3 04:02:46 30° NNE 04:02:46 30° NNE 04:05:53 10° ENE
NOSS 3-4 (A) 3.2 04:00:49 58° SW 04:02:06 85° NW 04:08:30 10° NE
NOSS 3-4 (C) 3.2 04:00:54 57° SW 04:02:15 86° NW 04:08:38 10° NE
CENTAUR R/B 3.4 04:01:35 46° W 04:02:35 48° WSW 04:10:57 10° S
ARGOS Delta rocket 3.9 03:59:59 10° N 04:04:42 71° NNW 04:04:42 71° NNW
Meteor 1-31 Rocket 4.1 04:02:53 10° NNE 04:05:08 33° NNE 04:05:08 33° NNE
USA 306 4.1 04:10:52 32° NNE 04:10:52 32° NNE 04:14:22 10° ENE
Cosmos 158 Rocket 3.7 04:10:38 74° WNW 04:11:00 80° WSW 04:15:58 10° SSE
Cosmos 1515 Rocket 4.1 04:09:36 21° N 04:12:31 58° ENE 04:16:55 10° SSE
SL-4 R/B 2.8 04:15:03 40° NNE 04:15:03 40° NNE 04:17:57 10° ENE
Cosmos 1151 Rocket 3.7 04:17:01 39° SSW 04:17:01 39° SSW 04:19:49 10° S
Cosmos 1782 2.8 04:16:34 67° NNE 04:17:02 79° E 04:21:04 10° SSE
SKYMED 2 3.7 04:13:06 10° SSE 04:17:25 75° ENE 04:19:24 32° N
Cosmos 1844 Rocket 3.8 04:12:38 10° S 04:17:58 45° ESE 04:23:22 10° NE
ATLAS 2AS CENTAUR R/B 2.9 04:15:31 18° SW 04:21:48 83° NW 04:29:41 10° NE
ERS-2 4.2 04:18:15 10° S 04:19:17 18° S 04:19:17 18° S
Cosmos 1680 Rocket 3.4 04:20:02 36° NNW 04:22:15 83° WSW 04:27:34 10° SSE
SJ-12 4.1 04:19:02 10° NNE 04:23:06 71° ESE 04:27:08 10° S
FALCON 9 DEB 3.6 04:24:40 53° E 04:24:40 53° E 04:27:19 10° ENE
ATLAS 5 CENTAUR R/B 3.4 04:31:19 21° N 04:31:19 21° N 04:32:32 10° NNE
Atlas Centaur 2 4.4 04:26:46 10° SW 04:30:16 15° S 04:33:25 10° SSE
RESURS DK-1 2.7 04:28:00 10° SSW 04:32:06 64° ESE 04:36:15 10° NE
CRYOSAT 2 4.2 04:27:45 10° S 04:32:36 73° W 04:37:29 10° N
ATLAS CENTAUR R/B 1.3 04:32:06 52° NNW 04:32:53 71° NE 04:36:48 10° SE
ADEOS 3.5 04:28:41 10° N 04:33:49 58° WNW 04:38:55 10° SSW
Lacrosse 5 1.7 04:32:03 40° WSW 04:33:52 79° NW 04:38:58 10° NE
Cosmos 1328 Rocket 3.7 04:35:39 48° W 04:35:39 48° W 04:39:49 10° SSW
Meteor PRIRODA 4.0 04:32:19 10° NNE 04:36:03 67° ESE 04:39:45 10° S
Cosmos 1500 Rocket 4.2 04:32:21 10° S 04:36:33 56° E 04:40:48 10° NNE
ERBS 4.3 04:38:12 18° N 04:38:12 18° N 04:39:48 10° NE
Meteor 2-6 Rocket 4.3 04:31:51 10° N 04:37:16 71° ENE 04:42:42 10° SSE
H-2A R/B 3.9 04:36:09 10° NNE 04:39:56 46° E 04:43:40 10° S
Cosmos 1437 Rocket 4.4 04:37:44 10° N 04:41:11 32° ENE 04:44:36 10° SE
Cosmos 2112 Rocket 4.0 04:38:53 25° NNW 04:42:00 67° WSW 04:47:17 10° S
Cosmos 2263 Rocket 2.8 04:43:11 32° WNW 04:43:40 33° NW 04:48:47 10° NNE
Gbstr 26 Del rocket 2.8 04:43:34 49° WSW 04:44:09 55° SSW 04:47:59 10° SE
SJ 16-02 1.8 04:45:52 38° WNW 04:45:52 38° WNW 04:49:56 10° N
Nadezhda 3 Rocket 4.3 04:43:23 10° N 04:49:42 69° E 04:55:54 10° SSE
Cosmos 1898 Rocket 3.4 04:47:53 10° SSW 04:53:12 78° WNW 04:58:35 10° NNE
CZ-2C R/B 4.2 04:50:27 10° SE 04:55:22 35° ENE 05:00:13 10° N
FALCON 9 DEB 2.8 04:56:35 46° W 04:57:23 74° NNW 05:00:36 10° ENE
FALCON 9 DEB 2.8 04:56:45 47° W 04:57:30 71° NNW 05:00:44 10° ENE
FENGYUN 3A 4.2 04:53:44 10° N 04:58:33 34° WNW 05:03:19 10° SW
Envisat 3.8 04:54:09 10° NNE 04:59:09 53° E 05:04:05 10° S
Cosmos 1743 Rocket 3.5 04:56:02 10° SSW 05:00:28 81° W 05:05:00 10° N
Cosmos 1408 Rocket 3.9 04:58:20 10° SSW 05:02:34 41° WNW 05:06:49 10° N
H-2A R/B 3.6 04:58:53 10° NNE 05:02:34 42° E 05:06:12 10° S
Cosmos 2181 Rocket 4.5 04:58:34 10° NNW 05:04:07 36° W 05:09:37 10° SSW
Cosmos 2082 Rocket 4.2 04:59:48 10° N 05:04:13 22° NE 05:08:36 10° E
NOSS 7 (H) 4.0 05:01:51 10° SW 05:05:14 89° NW 05:08:10 10° NE
COSMO-SKYMED 1 3.1 05:01:35 10° SSW 05:05:35 35° W 05:07:59 20° NW
USA 307 3.9 05:05:08 22° NW 05:07:19 37° N 05:11:20 10° E
Cosmos 1937 Rocket 3.4 05:05:09 10° SSW 05:10:17 75° WNW 05:15:31 10° NNE
USA 308 3.8 05:11:14 20° NW 05:13:42 38° NNE 05:17:44 10° E
Lacrosse 4 Rocket 3.4 05:14:32 14° WSW 05:14:32 14° WSW 05:16:21 10° SW
Cosmos 1833 Rocket 3.9 05:09:37 10° NNW 05:14:52 38° NE 05:20:05 10° ESE
Meteor 2-3 Rocket 4.4 05:09:50 10° SW 05:14:52 31° WNW 05:19:59 10° N
MOS 1 Rocket 3.4 05:11:05 10° S 05:15:53 71° W 05:21:02 10° NNW
Cosmos 2154 Rocket 4.0 05:10:05 10° S 05:16:19 84° W 05:22:38 10° N
CZ-4C R/B 2.2 05:11:27 10° WSW 05:16:27 57° NW 05:22:30 10° NE
CZ-4B R/B 3.5 05:13:05 10° N 05:17:20 42° WNW 05:21:29 10° SW
Cosmos 1689 Rocket 3.5 05:16:20 10° SSW 05:18:11 21° WSW 05:18:11 21° WSW
Meteor 1-27 Rocket 4.0 05:13:01 10° N 05:18:49 79° ENE 05:24:41 10° SSE
Cosmos 1805 Rocket 3.7 05:15:14 10° S 05:19:40 82° E 05:24:09 10° N
FALCON 9 DEB 3.1 05:18:33 23° W 05:20:15 54° NNW 05:23:26 10° ENE
Meteor 1-10 Rocket 4.2 05:15:18 10° NNW 05:20:48 65° W 05:26:20 10° S
ATLAS 3B R/B 3.2 05:17:51 15° NW 05:23:16 45° WSW 05:30:01 10° S
Aureole 2 Rocket 1.4 05:21:39 10° SSW 05:24:10 71° WNW 05:26:44 10° NNE
COSMOS 2406 3.9 05:19:24 10° NNW 05:25:04 54° ENE 05:30:42 10° SE
Cosmos 1862 3.6 05:23:22 10° SSW 05:27:17 47° WNW 05:31:14 10° N
YAOGAN 6 2.4 05:24:40 10° N 05:28:12 79° WNW 05:31:40 10° SSW
Genesis I 3.5 05:25:26 10° WSW 05:29:05 43° NW 05:32:47 10° NNE
ALOS 3.8 05:28:10 10° NNW 05:30:54 16° WNW 05:31:45 15° WNW
Cosmos 2341 Rocket 4.3 05:26:08 10° S 05:32:18 73° E 05:38:32 10° NNE
Cosmos 2278 Rocket 4.0 05:28:22 10° S 05:33:27 36° ESE 05:38:34 10° NE
Cosmos 2327 Rocket 4.5 05:29:49 10° SSW 05:35:48 59° WNW 05:41:50 10° N
PSLV R/B 3.9 05:33:12 10° N 05:36:58 50° WNW 05:40:38 10° SSW
Cosmos 2074 Rocket 4.4 05:31:36 10° SW 05:37:21 39° WNW 05:43:10 10° N
USA 305 3.6 05:38:55 12° NW 05:42:39 46° NNE 05:46:48 10° E
BREEZE M DEB (TANK) 2.9 05:36:16 10° WSW 05:42:53 60° SSE 05:45:25 10° ENE
SL-24 DEB 4.4 05:38:27 10° S 05:43:09 58° W 05:47:53 10° NNW
Cosmos 405 Rocket 3.3 05:39:50 10° SW 05:43:12 33° WNW 05:46:39 10° N
NOAA 12 4.3 05:40:45 10° NNE 05:46:03 77° ESE 05:51:18 10° S
Cosmos 1812 3.7 05:43:52 10° NNW 05:47:05 26° W 05:50:17 10° SSW
Cosmos 1295 Rocket 4.5 05:42:46 10° SSW 05:48:45 59° WNW 05:54:47 10° N
Cosmos 2228 Rocket 3.9 05:45:46 10° NNW 05:49:36 29° W 05:53:24 10° SSW
USA 306 3.5 05:47:01 11° NW 05:51:07 49° NNE 05:55:18 10° E
Cosmos 1633 Rocket 3.4 05:48:49 10° S 05:53:13 73° E 05:57:38 10° NNE
NOSS 3-4 (A) 4.5 05:48:46 10° W 05:53:56 28° NNW 05:59:30 10° NNE
NOSS 3-4 (C) 4.4 05:48:52 10° W 05:54:03 28° NNW 05:59:38 10° NNE
SL-4 R/B 2.2 05:50:38 10° WNW 05:54:20 50° NNE 05:57:51 10° E
USA 234 3.5 05:50:48 10° NE 05:57:22 80° SE 06:03:55 10° SW
Cosmos 1356 3.3 05:55:24 10° SSW 05:58:46 65° WNW 06:02:11 10° N
FALCON 9 DEB 3.8 05:57:17 10° W 06:00:16 34° NNW 06:03:15 10° NE
Cosmos 1844 Rocket 3.3 05:56:52 10° WSW 06:02:00 34° NW 06:07:11 10° NNE
FALCON 9 DEB 3.6 06:00:10 10° WNW 06:03:36 52° NNE 06:06:59 10° E
